Location: Colebrook
(42.0017°N, 73.0973°W)
Time: 05:39:05
(UTC-04:00)

Envisat - Visible Passes

Search period start: 28 September 2021 00:00
Search period end: 08 October 2021 00:00
Orbit: 764 x 766 km, 98.2° (Epoch: 27 September)

Date Brightness Start Highest point End Pass type
(mag) Time Alt. Az. Time Alt. Az. Time Alt. Az.
28 Sep 5.9 04:50:53 10° NE 04:54:03 17° E 04:57:14 10° SE visible
29 Sep 3.5 05:51:35 10° NNE 05:56:39 64° E 06:01:40 10° S visible
30 Sep 5.1 05:15:15 10° NE 05:19:38 28° E 05:23:59 10° SSE visible
01 Oct 6.1 04:40:11 10° ENE 04:42:25 13° E 04:44:38 10° ESE visible
01 Oct 3.0 06:16:53 10° N 06:21:58 75° WNW 06:27:01 10° SSW visible
02 Oct 4.0 05:40:09 10° NNE 05:45:06 50° E 05:50:00 10° S visible
03 Oct 5.5 05:04:03 10° NE 05:08:02 23° E 05:11:58 10° SE visible
04 Oct 3.1 06:05:21 10° NNE 06:10:28 87° ESE 06:15:33 10° SSW visible
05 Oct 4.5 05:28:47 10° NNE 05:33:33 39° E 05:38:15 10° SSE visible
06 Oct 5.8 04:53:00 10° NE 04:56:24 18° E 04:59:47 10° SE visible
07 Oct 3.4 05:53:52 10° NNE 05:58:57 69° ESE 06:04:00 10° S visible
